Current weather by "City, St" or "zip code"  
 

Current Conditions: LINTON, ND

A Few Clouds


NULL F

Last Updated on Oct 31 2020, 4:55 am CDT
Humidity: %
Wind Speed: W 8.1 mph
Barometer 29.64 in
Dewpoint: F
Visibility: 10.00 mi
Precip: --
Heat Index: NA
Wind Chill: 33 F
Current conditions at:

LINTON, ND (K7L2)

Lat: 46.22 Lon: 100.25

Local Radar Image active severe weather and emergency alerts image image weather storm and storm spotter reports image weather observation monitoring service image
Local
Radar
Active
Alerts
Storm Reports Obs
Monitoring

Sign-up For Email & Text Message Weather Alert Notification Services



Advertise Here

Observation History for LINTON, ND


Time Wind
(mph)
Vis
(mi)
Weather Precip (in) Temperature (F) Relative
Humidity
Wind
Chill
(F)
Heat
Index
(F)
Pressure
Air Dwpt altimeter
(in)
sea level
(mb)
Rmks
4:55 am CDT W 8.1 10.00 A Few Clouds -- NULL % 33 NA 29.64 M
3:55 am CDT SW 5.8 10.00 Fair -- NULL % 37 NA 29.62 M
2:55 am CDT W 5.8 10.00 Fair -- NULL % 37 NA 29.61 M
1:55 am CDT W 9.2 G 18.4 10.00 Fair -- NULL % 33 NA 29.62 M
12:55 am CDT S 23.0 G 31.1 10.00 Fair and Breezy -- NULL % 31 NA 29.54 M
11:55 pm CDT SE 18.4 G 25.3 10.00 Fair -- NULL % 32 NA 29.58 M
10:55 pm CDT SE 19.6 G 28.8 10.00 Fair -- NULL % 32 NA 29.61 M
9:55 pm CDT SE 23.0 G 34.5 10.00 Fair and Breezy -- NULL % 34 NA 29.65 M
8:55 pm CDT SE 21.9 G 28.8 10.00 Fair and Breezy -- NULL % 37 NA 29.71 M
7:55 pm CDT SE 24.2 G 31.1 3.00 Fog/Mist and Breezy -- NULL % 38 NA 29.75 M
6:55 pm CDT SE 24.2 G 33.4 0.75 Fog/Mist and Breezy -- NULL % 38 NA 29.79 M
5:55 pm CDT SE 17.3 G 25.3 0.25 Freezing Fog -- NULL % 47 NA 29.84 M
4:55 pm CDT SE 9.2 G 18.4 0.25 Freezing Fog -- NULL % 49 NA 29.90 M
3:55 pm CDT SE 13.8 0.25 Freezing Fog -- NULL % 47 NA 29.94 M
2:55 pm CDT SE 11.5 G 19.6 0.25 Freezing Fog -- NULL % 46 NA 29.99 M
1:55 pm CDT S 10.4 0.25 Freezing Fog -- NULL % 46 NA 30.05 M
12:55 pm CDT S 10.4 0.25 Freezing Fog -- NULL % 41 NA 30.08 M
11:55 am CDT S 10.4 0.75 Fog/Mist -- NULL % 40 NA 30.12 M
10:55 am CDT S 6.9 0.50 Fog/Mist -- NULL % 39 NA 30.15 M
9:55 am CDT SE 3.5 0.50 Freezing Fog -- NULL % NA NA 30.15 M
8:55 am CDT N 0.0 0.50 Fog/Mist -- NULL % NA NA 30.15 M
7:55 am CDT N 0.0 2.50 Fog/Mist -- NULL % NA NA 30.15 M
6:55 am CDT N 0.0 2.50 Fog/Mist -- NULL % NA NA 30.14 M
5:55 am CDT SW 3.5 2.50 Fog/Mist -- NULL % NA NA 30.13 M

Regional Weather Observation


Bismarck, Bismarck Municipal Airport, ND (KBIS)

Fair
39.0 F

MANDAN, ND (KY19)

Fair
43.0 F

Mobridge, Mobridge Municipal Airport, SD (KMBG)

Fair
43.0 F

HAZEN, ND (KHZE)

Fair and Breezy
48.0 F

CARRINGTON, ND (K46D)

Fair
41.0 F

Jamestown, Jamestown Municipal Airport, ND (KJMS)

Fair
38.0 F